Wind_Speed
7 10 7 9 7 8 15 5 6 6 5 4 6 2 16 20 13 6 13 11 16 15 17 16 15 13 12 11 9 8 8 9 10 10 10 9 7 5 4 4 4 4 4 4 4 3 2 2 3
5 8 8 12 8 13 10 11 7 7 10 6 6 4 5 12 16 17 13 16 16 13 14 16 15 14 12 12 9 9 8 9 10 11 11 10 8 7 6 5 5 5 4 4 4 4 4 4 5
6 8 14 10 13 14 10 4 8 9 9 13 7 1 8 9 9 9 15 18 16 14 12 15 13 13 12 10 10 9 10 10 9 9 9 9 8 7 7 6 6 5 5 5 5 6 6 6 6
6 9 12 10 18 16 8 3 1 10 10 10 13 10 7 6 7 14 17 17 16 14 12 16 14 12 11 10 10 11 10 10 9 8 8 7 7 7 7 6 6 6 6 7 7 7 8 8 8
8 12 12 18 18 13 2 4 9 13 12 12 11 11 8 7 14 17 18 16 16 14 13 15 14 12 11 11 11 11 10 9 7 7 7 7 7 8 8 8 8 9 9 9 9 9 10 10 10
15 10 12 15 17 8 4 6 11 13 12 13 7 14 7 13 15 17 16 16 16 14 13 15 13 12 11 11 10 9 9 8 7 6 6 7 8 8 9 10 11 11 12 12 13 13 13 14 14
14 12 16 20 17 8 9 8 13 14 12 12 7 12 8 15 16 17 18 17 16 15 13 12 13 12 10 9 8 7 6 6 6 6 7 7 8 8 9 10 11 12 13 14 14 15 15 16 16
13 11 20 19 13 15 8 7 14 15 16 10 9 6 9 22 19 18 17 17 16 16 15 15 12 11 10 8 8 7 7 7 7 7 7 6 7 8 8 10 11 11 12 13 14 15 16 17 18
10 9 14 17 11 10 9 10 12 16 9 12 9 6 8 27 22 20 19 17 15 15 14 14 13 11 9 8 9 9 8 7 6 6 5 5 4 3 7 8 8 9 11 11 11 12 13 16 16
12 12 17 10 9 8 4 12 13 13 15 12 12 6 18 24 23 23 21 20 17 16 15 16 15 13 12 11 9 8 7 7 7 7 5 4 6 6 7 8 9 10 12 13 14 14 15 15 9
15 16 17 7 7 8 14 8 16 15 17 18 19 16 18 24 23 21 20 19 19 18 16 17 18 16 12 10 8 6 5 6 7 8 7 8 4 4 2 4 6 9 10 10 12 10 9 12 14
11 17 15 14 4 11 12 14 11 16 21 14 18 20 20 24 25 24 22 20 20 19 17 15 16 15 13 9 8 6 5 5 6 7 7 5 2 5 7 7 7 9 12 14 15 12 18 17 17
15 16 13 12 12 13 15 13 13 17 16 8 8 18 22 22 23 22 21 21 20 20 18 17 16 15 14 13 10 8 6 6 5 6 7 8 5 6 6 7 6 7 9 10 11 13 14 16 15
13 11 14 16 17 16 15 16 19 18 16 12 16 19 22 23 22 22 23 23 22 20 18 18 17 17 16 14 11 9 9 7 6 5 4 6 5 4 2 3 4 6 8 9 10 12 14 15 17
15 16 16 19 20 18 14 18 21 22 21 19 19 21 23 23 23 24 24 23 22 19 18 18 18 18 17 14 13 11 9 6 5 5 5 4 3 2 1 2 4 6 7 9 10 11 13 13 14
16 17 16 11 6 15 14 18 17 26 26 23 24 23 23 24 25 25 23 22 20 18 18 17 17 18 16 15 12 11 10 9 7 5 4 3 2 1 2 4 6 8 11 12 13 13 13 12 14
16 15 18 11 14 6 12 13 16 12 27 23 26 26 25 24 24 24 23 23 21 20 19 18 18 18 17 15 14 12 10 9 8 7 6 5 2 1 2 5 8 10 12 14 15 15 15 16 16
18 15 14 16 8 11 15 16 16 10 14 19 24 26 26 25 25 25 24 22 20 19 19 18 19 20 19 16 14 12 10 9 8 8 7 5 2 1 4 7 10 11 11 13 15 15 15 14 17
18 16 18 19 18 5 14 19 17 18 21 20 23 26 26 27 26 25 23 21 21 21 21 20 20 20 19 14 12 10 8 8 8 8 6 5 3 1 4 6 7 8 10 13 14 15 13 11 17
17 18 19 20 20 18 17 21 20 18 22 25 26 26 26 26 27 29 26 26 24 22 21 20 18 18 15 12 11 11 10 9 10 9 8 5 3 1 2 4 8 9 9 11 12 12 12 8 13
19 21 20 21 20 21 19 26 25 22 31 31 29 29 27 27 30 31 28 27 24 23 23 21 19 18 15 15 14 13 12 11 9 8 7 6 4 1 3 4 6 8 8 9 10 10 11 9 11
22 18 19 16 15 15 18 19 19 17 13 24 28 28 29 27 27 31 28 26 24 22 21 20 20 19 17 18 13 13 10 10 9 9 9 7 4 2 2 4 6 6 7 8 8 9 8 8 8
23 13 13 16 16 19 21 14 20 17 14 19 16 20 24 25 25 30 28 25 23 21 20 20 20 19 18 18 14 14 12 15 12 9 8 6 4 2 2 3 4 6 7 9 9 9 8 8 7
16 11 14 13 12 16 19 18 27 9 6 8 8 12 13 17 18 24 24 22 22 22 21 21 21 19 16 16 15 15 15 14 12 10 8 6 5 4 4 4 5 6 7 7 8 8 8 7 7
16 14 10 12 10 17 12 15 17 10 8 9 6 6 5 9 12 16 21 22 22 22 20 20 19 18 17 16 15 14 15 14 13 11 8 7 6 5 4 4 5 6 7 8 8 9 9 8 6
14 19 10 11 14 15 14 20 4 9 9 8 5 2 2 3 5 11 16 19 20 20 20 19 19 19 18 17 17 16 18 15 14 14 11 9 7 5 4 5 5 6 7 7 7 7 6 7 6
14 17 18 16 15 8 8 18 3 10 9 7 8 6 4 3 6 9 13 17 19 19 19 19 19 18 18 18 18 17 16 16 14 12 10 8 6 6 6 6 6 6 6 5 4 5 4 4 5
18 3 10 7 6 12 14 18 4 6 4 6 7 7 5 3 5 8 13 17 18 19 19 18 19 18 17 18 18 18 17 15 14 11 8 8 8 8 7 5 5 5 5 4 2 2 6 4 5
11 16 11 8 14 9 11 5 6 9 7 8 8 7 6 3 1 6 10 13 15 17 17 18 18 18 20 19 19 18 18 16 13 10 10 9 7 8 6 4 5 5 3 2 2 2 3 3 4
11 13 18 11 14 13 13 15 9 5 5 7 7 6 7 4 3 2 8 12 17 18 19 17 17 21 18 17 17 18 15 13 13 12 12 10 8 7 6 6 4 2 2 2 0 0 2 2 4
Wind_Direction
321 322 309 269 244 230 267 215 326 162 201 47 92 1 80 43 15 58 140 152 146 150 163 168 166 167 171 167 156 147 133 130 138 144 150 159 165 173 182 182 185 180 186 192 209 220 235 272 297
302 284 272 270 254 261 265 93 198 176 85 150 124 136 123 69 72 109 130 144 150 152 154 173 171 173 178 173 176 162 154 152 153 153 156 162 171 178 185 188 193 198 206 210 222 240 253 271 280
300 274 268 238 242 266 308 112 197 97 157 165 129 328 109 103 92 115 137 144 149 151 159 175 175 182 180 175 182 183 178 173 172 171 170 171 177 183 188 193 196 208 217 225 236 253 262 267 273
278 243 248 256 267 271 280 92 187 154 179 191 172 114 92 99 114 142 144 142 149 155 168 165 176 180 188 189 196 197 191 189 187 188 189 192 199 204 213 217 221 224 229 233 242 254 266 270 270
251 263 264 256 264 270 300 270 203 179 180 198 198 135 107 141 124 138 143 145 147 152 155 170 177 184 189 192 195 198 197 199 206 211 216 223 228 232 238 241 241 243 245 248 251 254 260 267 270
257 243 270 264 268 199 215 234 228 202 171 195 199 128 123 154 143 146 147 147 148 149 152 168 174 180 185 189 194 197 198 202 213 222 236 247 251 253 255 258 256 253 253 255 259 262 266 269 272
251 271 265 280 290 281 208 230 237 201 187 174 211 167 130 160 165 152 151 149 150 149 148 158 178 179 186 192 197 202 211 225 231 235 242 250 257 261 266 270 270 268 265 265 265 264 267 269 270
273 272 268 270 266 272 136 214 245 222 198 179 194 171 170 170 160 156 151 151 153 160 176 176 176 188 196 199 202 213 224 230 229 232 240 246 257 263 265 270 275 274 272 272 273 275 276 277 279
257 257 260 267 262 265 134 228 211 242 185 175 196 345 135 164 159 158 157 156 157 155 179 183 188 189 195 201 208 210 215 218 219 226 232 242 267 292 276 276 282 282 283 280 282 283 288 293 294
234 251 263 10 348 300 290 245 198 227 217 197 185 148 144 161 165 170 169 166 165 162 169 180 183 184 187 198 203 204 204 206 206 204 141 219 211 235 266 285 288 291 291 287 287 288 291 311 304
255 251 287 318 276 276 277 224 256 214 230 203 202 177 167 170 177 178 176 174 172 167 164 182 188 186 189 199 202 210 215 232 231 226 215 226 216 246 282 305 295 283 284 282 287 300 300 270 286
263 260 273 273 249 261 255 264 220 236 244 221 217 189 183 180 184 183 182 177 172 168 164 168 185 185 181 175 164 187 196 204 225 224 217 216 193 242 238 256 279 286 285 283 279 280 276 285 285
255 261 267 264 255 255 262 260 252 235 238 222 231 171 189 191 192 192 189 179 177 171 166 166 174 183 184 175 184 192 183 183 206 221 214 210 223 245 253 270 273 287 293 294 298 297 299 299 296
308 285 277 264 256 250 247 247 243 244 236 225 226 200 201 200 198 196 192 187 181 175 170 177 180 187 183 191 193 195 194 186 197 208 215 205 200 202 246 290 310 309 314 313 309 305 304 300 300
275 271 263 248 239 241 242 247 245 233 225 223 216 209 207 207 207 203 197 192 184 178 173 181 186 188 191 191 189 189 190 187 197 201 221 240 249 240 312 332 329 326 321 317 314 313 311 308 302
257 257 268 253 211 228 236 253 239 227 239 219 221 220 216 212 212 206 198 195 191 182 177 179 184 187 182 188 186 190 193 192 191 203 221 241 230 60 37 1 347 343 340 336 332 324 317 310 305
231 259 252 222 179 243 207 256 249 271 207 221 234 228 223 220 216 207 200 197 192 188 180 177 185 185 186 185 189 191 187 188 193 193 179 170 157 78 10 1 351 343 338 333 338 336 331 329 318
256 244 223 251 220 212 239 242 256 257 259 225 238 241 228 219 218 206 200 197 194 191 183 181 182 189 189 190 188 188 189 192 185 175 169 163 148 55 3 349 348 348 341 337 337 338 337 338 321
273 284 285 285 284 255 265 264 259 257 216 233 237 237 231 221 216 205 200 196 192 193 187 185 187 189 188 181 172 170 170 178 179 179 173 177 185 282 338 335 335 343 344 347 347 349 352 350 339
264 262 261 270 273 272 263 260 261 256 248 234 232 233 232 220 208 199 199 198 195 194 190 186 186 188 177 175 170 172 167 165 181 184 185 186 197 244 316 346 349 354 352 348 351 357 7 3 356
251 257 265 275 288 285 268 268 259 249 248 242 228 235 230 225 209 197 201 202 198 197 193 191 188 183 179 181 183 178 183 185 179 179 190 192 202 262 334 353 358 351 349 345 349 356 4 13 6
253 251 262 257 269 269 277 285 276 280 248 218 228 220 231 220 214 201 202 203 202 202 197 194 191 187 186 194 182 188 175 169 176 174 195 192 196 218 325 337 339 335 333 338 343 349 358 6 10
258 287 285 264 263 275 262 266 270 264 250 240 201 228 224 225 210 204 201 203 202 200 201 196 195 190 195 190 188 182 178 190 184 176 177 195 204 236 288 307 321 330 329 330 334 339 347 360 8
273 258 247 253 255 257 259 252 276 296 329 311 193 175 219 226 219 207 196 202 202 201 199 196 197 194 195 189 188 183 184 177 175 174 170 184 227 256 275 301 317 320 326 330 333 337 340 354 353
240 221 242 228 217 244 261 248 246 141 102 70 101 161 192 221 219 206 188 201 203 201 199 197 197 194 190 185 183 180 178 176 178 173 176 188 218 243 268 294 313 314 316 317 326 331 333 337 344
218 222 232 251 254 273 291 241 253 79 72 85 72 40 164 160 198 205 203 204 202 199 198 196 193 190 185 181 176 177 182 174 182 191 202 208 227 254 270 279 283 297 305 318 325 324 333 334 345
249 219 250 280 282 287 262 283 241 110 96 67 65 75 95 163 178 194 198 201 201 201 199 197 190 188 182 177 178 176 177 191 200 207 213 221 239 250 254 261 276 283 290 294 318 324 333 355 349
246 1 235 205 236 236 254 257 317 48 91 120 92 92 106 162 200 205 205 202 200 203 200 195 191 190 182 179 184 189 195 202 207 203 217 239 239 244 244 258 269 274 278 287 339 13 327 339 341
205 238 241 268 228 270 276 278 38 64 44 76 86 86 77 67 247 219 212 206 204 197 199 196 193 186 184 186 190 195 201 203 201 205 225 221 237 231 238 242 250 264 280 333 340 316 326 2 12
288 290 232 237 243 246 253 268 96 80 76 38 39 26 6 11 19 227 208 201 196 197 197 196 191 194 195 198 202 204 200 202 205 211 212 212 208 214 223 230 235 227 269 269 199 54 343 12 25
Height
1503 1503 1504 1504 1498 1476 1465 1453 1455 1462 1467 1469 1469 1469 1472 1480 1481 1497 1505 1509 1511 1514 1514 1517 1519 1521 1523 1525 1527 1529 1530 1531 1532 1533 1534 1535 1536 1537 1538 1539 1539 1540 1540 1540 1540 1540 1541 1541 1541
1503 1505 1504 1496 1489 1471 1451 1445 1463 1458 1466 1474 1476 1477 1475 1488 1493 1499 1506 1509 1513 1515 1515 1517 1519 1521 1523 1524 1527 1529 1531 1532 1534 1534 1534 1535 1536 1537 1539 1539 1540 1540 1541 1541 1541 1541 1541 1541 1541
1503 1504 1501 1483 1473 1469 1457 1454 1456 1464 1473 1476 1477 1477 1482 1493 1498 1502 1506 1510 1513 1517 1519 1516 1520 1522 1523 1525 1527 1529 1531 1533 1534 1534 1534 1535 1536 1537 1538 1539 1539 1540 1541 1541 1541 1541 1540 1541 1541
1505 1502 1497 1487 1472 1453 1457 1457 1461 1469 1474 1474 1475 1481 1492 1495 1499 1501 1506 1510 1513 1516 1517 1518 1520 1521 1524 1526 1528 1530 1531 1533 1534 1535 1535 1535 1536 1536 1537 1538 1539 1539 1540 1540 1540 1540 1540 1540 1540
1503 1497 1485 1476 1467 1453 1461 1463 1465 1468 1471 1475 1474 1480 1492 1496 1499 1502 1505 1509 1513 1515 1514 1517 1520 1522 1523 1526 1529 1530 1531 1532 1534 1534 1535 1535 1535 1536 1536 1537 1538 1538 1538 1538 1538 1538 1538 1538 1539
1498 1491 1485 1475 1456 1449 1464 1467 1466 1465 1470 1474 1476 1480 1493 1497 1500 1503 1505 1508 1512 1514 1514 1516 1519 1521 1523 1525 1527 1529 1530 1532 1533 1534 1534 1534 1535 1535 1535 1535 1536 1537 1537 1536 1536 1536 1536 1536 1536
1495 1483 1477 1469 1459 1455 1463 1470 1467 1465 1470 1473 1476 1480 1494 1497 1500 1501 1504 1507 1510 1513 1515 1515 1518 1520 1523 1524 1526 1528 1529 1530 1531 1532 1533 1533 1533 1533 1534 1534 1535 1535 1535 1535 1534 1534 1534 1534 1534
1492 1483 1477 1464 1465 1459 1459 1471 1469 1466 1468 1472 1478 1477 1488 1495 1498 1500 1502 1505 1508 1510 1512 1514 1516 1519 1521 1523 1525 1526 1527 1528 1529 1530 1531 1532 1532 1532 1532 1533 1533 1534 1534 1533 1533 1532 1532 1532 1532
1492 1485 1474 1462 1458 1461 1465 1470 1470 1469 1469 1476 1482 1483 1485 1488 1495 1500 1502 1504 1507 1509 1510 1513 1515 1517 1519 1521 1523 1524 1525 1527 1527 1528 1529 1529 1530 1531 1531 1531 1532 1532 1532 1532 1531 1531 1531 1530 1530
1487 1476 1466 1462 1462 1466 1469 1469 1465 1472 1469 1476 1481 1488 1488 1490 1494 1497 1499 1502 1505 1508 1508 1510 1514 1515 1517 1518 1521 1522 1524 1525 1525 1526 1528 1528 1529 1529 1529 1530 1530 1530 1529 1530 1529 1529 1528 1528 1529
1481 1477 1465 1468 1473 1473 1469 1467 1465 1471 1468 1473 1480 1485 1487 1490 1494 1497 1499 1501 1504 1506 1509 1507 1511 1513 1516 1517 1519 1520 1521 1522 1523 1524 1526 1527 1527 1527 1528 1529 1528 1527 1526 1526 1526 1526 1527 1524 1524
1482 1475 1473 1474 1472 1476 1471 1468 1466 1469 1469 1470 1474 1480 1487 1488 1491 1493 1496 1500 1502 1504 1506 1508 1509 1511 1513 1515 1518 1518 1519 1520 1520 1521 1523 1525 1527 1525 1525 1525 1525 1525 1524 1523 1522 1522 1520 1520 1520
1480 1475 1472 1475 1474 1475 1473 1470 1468 1467 1470 1472 1473 1478 1483 1488 1491 1493 1495 1497 1500 1502 1503 1505 1507 1508 1511 1514 1514 1516 1518 1519 1519 1520 1520 1521 1522 1523 1523 1522 1523 1522 1521 1520 1520 1519 1517 1517 1516
1477 1477 1473 1473 1471 1471 1472 1468 1468 1467 1470 1473 1474 1477 1481 1484 1487 1490 1493 1496 1497 1499 1499 1501 1502 1505 1508 1510 1512 1513 1515 1516 1517 1517 1518 1519 1518 1519 1520 1520 1520 1519 1519 1518 1517 1516 1515 1515 1514
1483 1478 1468 1464 1464 1465 1467 1467 1462 1463 1465 1470 1472 1474 1476 1480 1484 1487 1491 1494 1496 1496 1497 1498 1500 1502 1505 1507 1509 1510 1513 1514 1514 1515 1516 1517 1517 1518 1518 1519 1519 1519 1518 1516 1515 1514 1512 1511 1510
1479 1473 1468 1449 1454 1457 1463 1462 1454 1457 1463 1465 1468 1470 1473 1476 1480 1484 1489 1493 1496 1497 1496 1496 1497 1500 1503 1505 1507 1508 1510 1512 1513 1513 1514 1516 1517 1518 1518 1518 1517 1516 1516 1515 1514 1512 1510 1508 1507
1465 1470 1455 1448 1451 1455 1461 1458 1449 1449 1451 1456 1463 1465 1468 1472 1478 1482 1486 1490 1492 1493 1494 1495 1495 1498 1501 1504 1505 1507 1508 1510 1511 1512 1513 1514 1516 1517 1518 1517 1516 1515 1514 1513 1511 1511 1508 1506 1504
1457 1451 1448 1453 1444 1453 1452 1451 1449 1451 1452 1453 1457 1457 1461 1467 1473 1479 1484 1488 1491 1493 1493 1492 1493 1495 1498 1501 1503 1504 1506 1507 1508 1510 1511 1512 1514 1515 1515 1516 1515 1514 1514 1513 1511 1506 1506 1505 1501
1457 1458 1457 1448 1441 1449 1452 1448 1443 1444 1447 1452 1452 1453 1452 1458 1468 1476 1480 1484 1487 1489 1489 1489 1490 1492 1495 1498 1501 1504 1505 1506 1507 1508 1510 1511 1511 1512 1513 1515 1515 1513 1512 1512 1509 1508 1505 1504 1500
1460 1460 1456 1448 1444 1443 1443 1441 1438 1437 1437 1439 1445 1446 1449 1453 1460 1468 1474 1477 1480 1484 1487 1489 1490 1492 1497 1500 1502 1504 1504 1506 1506 1508 1508 1510 1511 1512 1514 1512 1514 1513 1510 1508 1507 1507 1505 1504 1501
1459 1457 1452 1449 1441 1437 1441 1435 1430 1425 1426 1428 1431 1439 1442 1446 1453 1461 1469 1473 1477 1480 1483 1486 1489 1491 1496 1498 1498 1500 1501 1503 1505 1507 1507 1508 1510 1511 1511 1511 1508 1511 1510 1509 1506 1505 1504 1505 1504
1452 1446 1446 1446 1453 1448 1430 1429 1417 1409 1407 1413 1423 1429 1434 1438 1447 1455 1463 1470 1474 1479 1482 1485 1487 1490 1492 1493 1496 1498 1501 1504 1507 1507 1505 1505 1506 1507 1507 1508 1507 1507 1508 1507 1506 1504 1503 1502 1502
1449 1449 1452 1446 1446 1444 1437 1440 1407 1402 1405 1402 1413 1422 1430 1434 1441 1449 1458 1464 1469 1475 1480 1484 1486 1487 1487 1490 1494 1496 1501 1500 1502 1503 1504 1505 1505 1505 1505 1505 1505 1506 1506 1506 1505 1503 1502 1502 1501
1449 1452 1455 1449 1447 1447 1430 1432 1390 1403 1401 1401 1408 1419 1427 1432 1436 1445 1455 1464 1467 1470 1474 1480 1483 1484 1485 1489 1492 1495 1498 1498 1500 1502 1503 1504 1504 1503 1503 1503 1504 1504 1503 1504 1503 1501 1501 1499 1500
1450 1454 1456 1448 1447 1431 1410 1412 1402 1407 1412 1416 1419 1423 1430 1436 1440 1445 1453 1461 1467 1470 1473 1477 1481 1483 1484 1486 1489 1492 1495 1497 1499 1500 1502 1502 1502 1501 1501 1500 1501 1502 1503 1502 1500 1499 1499 1497 1497
1444 1443 1445 1448 1433 1417 1400 1409 1402 1414 1421 1423 1429 1432 1433 1439 1444 1449 1455 1461 1466 1469 1471 1475 1477 1481 1482 1483 1486 1488 1490 1492 1494 1495 1498 1499 1499 1500 1499 1499 1500 1500 1501 1499 1500 1500 1497 1498 1496
1439 1440 1434 1443 1440 1450 1424 1409 1403 1414 1425 1431 1433 1437 1439 1443 1445 1450 1454 1458 1464 1467 1470 1473 1476 1478 1479 1481 1482 1485 1488 1489 1491 1493 1495 1495 1495 1498 1499 1498 1499 1499 1498 1498 1495 1497 1498 1497 1495
1441 1440 1445 1451 1464 1450 1422 1416 1416 1425 1425 1435 1438 1441 1443 1446 1448 1449 1452 1455 1459 1463 1467 1471 1474 1475 1477 1478 1480 1483 1485 1486 1489 1490 1492 1494 1496 1496 1497 1496 1496 1496 1497 1495 1493 1496 1496 1497 1495
1440 1442 1442 1435 1441 1442 1435 1424 1433 1437 1436 1436 1441 1444 1446 1447 1448 1451 1452 1455 1459 1462 1467 1472 1473 1475 1474 1474 1476 1478 1482 1484 1485 1487 1489 1492 1493 1497 1496 1494 1495 1495 1497 1493 1492 1494 1495 1495 1493
1437 1434 1433 1441 1442 1436 1438 1432 1435 1442 1445 1445 1445 1447 1447 1447 1449 1451 1452 1453 1456 1460 1463 1468 1471 1470 1473 1474 1475 1476 1479 1482 1483 1485 1486 1488 1491 1494 1493 1492 1492 1495 1494 1493 1493 1493 1495 1494 1489